Aeroporto :
LOGIN :

Iscrizione | Disclaimer

   EN    FR    IT 

 










Sommario :    VFR   VFR Marginale   IFR   IFR Intensivo   IFR Molto Intensivo
Visibilità : 
Base nubi : 
>= 8 km
>= 3000ft
5 / 8 km
1000 / 3000 ft
1500m / 5 km
500 / 1000 ft
800 / 1500m
200 / 500 ft
< 800m
< 200 ft
Simboli :   Temporali  Nebbia  Neve Forte  Precipitazioni Forti  Vento > 20 kt
SIGMETs :   Varie  Temporali  Ghiacco  Turbolenza  Onda orograficha  Ceneri Vulcaniche






- Altitudine del aeroporto : 408 ft
- Codice IATA : FKB


EDSB - Karlsruhe Baden Baden

ULTIMO METAR :
  • 240850Z 21007KT 180V250 CAVOK 17/12 Q1020

METARs OBSOLETI :
  • 240820Z 23007KT CAVOK 16/12 Q1020
  • 240750Z 22007KT 200V270 CAVOK 14/12 Q1020
  • 240720Z 21006KT CAVOK 13/12 Q1020
  • 240650Z 20006KT CAVOK 12/11 Q1020
  • 240620Z 21004KT CAVOK 10/09 Q1019

TAF TAF EDSB
Valido dal 24 a 06 ore il 25 a 06 ore UTC


240500Z 2406/2506 22005KT CAVOK
BECMG 2417/2419 VRB03KT
BECMG 2500/2502 2500 BCFG
TEMPO 2502/2506 0300 FG BKN001



MetMap, La meteo Aeronautica in un colpo d'occhio ! - Copyright ORBIFLY Dicembre 2007 - Disclaimer

ORBIFLY MET'MAP TEAM :

Programmazione e sviluppo : Alexandra Zaïnal
Concezione : Baudouin d'Aumeries
Aiuto per la programmazione : Marc-Olivier Méhu
Supporto tecnico e logistico : Manuel Goepfert
Aiuto per la traduzione : Arnaldo La Scala

Contatto : metmap@orbifly.com




FONTI E CREDITI :

   NOAA